Fort Simpson, Northwest Territories

4:17 PM MDT on October 18, 2017 (GMT -0600)
Fort Simpson

Weather History for CZFS - December, 2012

Change the Weather History Date:

Friday, December 7, 2012

  Actual Average (CYFS) Record (CYFS)
Temperature  
Mean Temperature -14 °F -  
Max Temperature -8 °F 0 °F 39 °F (2006)
Min Temperature -21 °F -8 °F -32 °F (2004)
Degree Days  
Heating Degree Days 80    
Moisture  
Dew Point -18 °F    
Average Humidity 78    
Maximum Humidity 81    
Minimum Humidity 66    
Precipitation  
Precipitation 0.00 in - - ()
Sea Level Pressure  
Sea Level Pressure 30.32 in    
Wind  
Wind Speed 5 mph ()    
Max Wind Speed 10 mph    
Max Gust Speed -    
Averages and records for this station are not official NWS values.
T = Trace of Precipitation, MM = Missing Value Source: Averaged Metar Reports

Daily Weather History Graph

Daily Weather History Graph

Search for Another Location

Airport or City:

Trip Planner

Search our weather history database for the weather conditions in past years. The results will help you decide how hot, cold, wet, or windy it might be!

Date:

Astronomy

Dec. 07, 2012 Rise Set
Actual Time 10:09 AM MST 3:43 PM MST
Civil Twilight 9:07 AM MST 4:45 PM MST
Nautical Twilight 8:07 AM MST 5:46 PM MST
Astronomical Twilight 7:12 AM MST 6:40 PM MST
Moon 1:47 AM MST (12/7) 1:20 PM MST (12/7)
Length of Visible Light 7h 38m
Length of Day
5h 33m
Last Quarter, 38% of the Moon is Illuminated
Dec 7
Last Quarter
Dec 13
New
Dec 19
First Quarter
Dec 28
Full
Jan 4
Last Quarter

Hourly Weather History & Observations

Time (MST) Temp. Windchill Dew Point Humidity Pressure Visibility Wind Dir Wind Speed Gust Speed Precip Events Conditions
12:00 AM -9.6 °F -21.1 °F -13.9 °F 81% 30.23 in - NW 4.6 mph - N/A   Unknown
1:00 AM -9.8 °F -24.7 °F -14.1 °F 81% 30.23 in - NW 6.9 mph - N/A   Unknown
2:00 AM -9.4 °F -24.3 °F -13.9 °F 81% 30.24 in - NW 6.9 mph - N/A   Unknown
3:00 AM -9.6 °F -25.8 °F -14.1 °F 81% 30.25 in - NW 8.1 mph - N/A   Unknown
4:00 AM -9.8 °F -26.1 °F -14.1 °F 81% 30.25 in - NW 8.1 mph - N/A   Unknown
5:00 AM -9 °F - -14 °F 68% 30.25 in - NW 8.1 mph - -  
5:00 AM -9.4 °F -25.6 °F -13.9 °F 81% 30.25 in - NW 8.1 mph - N/A   Unknown
6:00 AM -9.0 °F -25.2 °F -13.5 °F 81% 30.26 in - NNW 8.1 mph - N/A   Unknown
7:00 AM -8.7 °F -27.0 °F -13.2 °F 81% 30.27 in - NNW 10.4 mph - N/A   Unknown
8:00 AM -9.6 °F -27.0 °F -14.3 °F 80% 30.27 in - NW 9.2 mph - N/A   Unknown
9:00 AM -9.8 °F -26.1 °F -14.4 °F 80% 30.28 in - NW 8.1 mph - N/A   Unknown
10:00 AM -13.4 °F -27.4 °F -17.9 °F 80% 30.30 in - NW 5.8 mph - N/A   Unknown
11:00 AM -17 °F - -21 °F 72% 30.32 in - NNW 2.3 mph - -  
11:00 AM -16.6 °F - -20.9 °F 81% 30.32 in - NNW 2.3 mph - N/A   Unknown
12:00 PM -13.2 °F - -17.5 °F 81% 30.33 in - NW 2.3 mph - N/A   Unknown
1:00 PM -11.7 °F -23.6 °F -16.1 °F 81% 30.34 in - NW 4.6 mph - N/A   Unknown
2:00 PM -10.7 °F -22.3 °F -15.0 °F 81% 30.34 in - NW 4.6 mph - N/A   Unknown
3:00 PM -11.2 °F -23.0 °F -15.9 °F 80% 30.35 in - NW 4.6 mph - N/A   Unknown
4:00 PM -13.0 °F -27.0 °F -17.3 °F 81% 30.37 in - NW 5.8 mph - N/A   Unknown
5:00 PM -17 °F - -22 °F 67% 30.38 in - NW 3.5 mph - -  
5:00 PM -17.1 °F -27.4 °F -21.8 °F 79% 30.38 in - NW 3.5 mph - N/A   Unknown
6:00 PM -17.5 °F -27.8 °F -22.2 °F 79% 30.39 in - WNW 3.5 mph - N/A   Unknown
7:00 PM -20.0 °F -30.7 °F -24.9 °F 78% 30.40 in - NW 3.5 mph - N/A   Unknown
8:00 PM -18.9 °F -32.0 °F -23.8 °F 78% 30.41 in - NNW 4.6 mph - N/A   Unknown
10:00 PM -16.1 °F -28.6 °F -20.7 °F 79% 30.43 in - NW 4.6 mph - N/A   Unknown
11:00 PM -21 °F - -26 °F 66% 30.44 in - NW 3.5 mph - -  
11:00 PM -20.6 °F -31.3 °F -25.8 °F 77% 30.44 in - NW 3.5 mph - N/A   Unknown